Location: Casco Volunteer Fire Department
(44.5576°N, 87.6146°W)
Time: 04:17:30
(UTC+00:00)

COSMO-SKYMED 1 - Pass Details

Date: 22 January 2026
Orbit: 578 x 579 km, 97.9° (Epoch: 11 February)

Event Time Altitude Azimuth Distance (km) Brightness Sun altitude
Rises 12:40:38 0° 216° (SW) 2,785 5.8 -7.1°
Reaches altitude 10° 12:44:06 10° 248° (WSW) 1,893 4.6 -6.5°
Maximum altitude 12:45:41 12° 270° (W) 1,771 4.3 -6.2°
Drops below altitude 10° 12:47:16 10° 293° (WNW) 1,899 4.4 -6.0°
Enters shadow 12:49:08 - 314° (NW) 2,306 4.9 -5.6°
